TimeEDT,TemperatureF,Dew PointF,Humidity,Sea Level PressureIn,VisibilityMPH,Wind Direction,Wind SpeedMPH,Gust SpeedMPH,PrecipitationIn,Events,Conditions,WindDirDegrees,DateUTC
12:54 AM,41.0,30.9,67,30.17,10.0,NW,3.5,-,N/A,,Clear,320,2014-04-28 04:54:00
1:54 AM,39.0,30.9,73,30.16,10.0,North,4.6,-,N/A,,Clear,350,2014-04-28 05:54:00
2:54 AM,37.0,30.0,76,30.13,10.0,Calm,Calm,-,N/A,,Clear,0,2014-04-28 06:54:00
3:54 AM,35.6,30.2,81,30.13,10.0,Calm,Calm,-,N/A,,Clear,0,2014-04-28 07:54:00
4:54 AM,34.0,28.9,82,30.15,10.0,WNW,3.5,-,N/A,,Clear,300,2014-04-28 08:54:00
5:54 AM,33.1,28.0,82,30.17,10.0,Calm,Calm,-,N/A,,Clear,0,2014-04-28 09:54:00
6:54 AM,34.0,30.0,85,30.17,10.0,North,4.6,-,N/A,,Clear,350,2014-04-28 10:54:00
7:54 AM,39.0,32.0,76,30.17,10.0,West,3.5,-,N/A,,Clear,260,2014-04-28 11:54:00
8:54 AM,45.0,34.0,65,30.17,10.0,SW,3.5,-,N/A,,Clear,230,2014-04-28 12:54:00
9:54 AM,51.1,33.1,50,30.14,10.0,Variable,3.5,-,N/A,,Clear,0,2014-04-28 13:54:00
10:54 AM,53.1,33.1,47,30.11,10.0,ESE,4.6,-,N/A,,Clear,120,2014-04-28 14:54:00
11:54 AM,55.9,30.9,39,30.09,10.0,Variable,5.8,-,N/A,,Clear,0,2014-04-28 15:54:00
12:54 PM,59.0,30.9,35,30.06,10.0,Variable,4.6,-,N/A,,Clear,0,2014-04-28 16:54:00
1:54 PM,61.0,30.9,32,30.02,10.0,SE,5.8,-,N/A,,Clear,140,2014-04-28 17:54:00
2:54 PM,61.0,32.0,34,30.00,10.0,South,5.8,-,N/A,,Scattered Clouds,180,2014-04-28 18:54:00
3:54 PM,61.0,33.1,35,29.99,10.0,SSE,10.4,-,N/A,,Mostly Cloudy,160,2014-04-28 19:54:00
4:54 PM,60.8,33.8,36,29.99,10.0,SSE,4.6,-,N/A,,Overcast,150,2014-04-28 20:54:00
5:54 PM,60.1,32.0,35,29.99,10.0,South,6.9,-,N/A,,Clear,180,2014-04-28 21:54:00
6:54 PM,60.1,32.0,35,29.98,10.0,SSE,5.8,-,N/A,,Clear,160,2014-04-28 22:54:00
7:54 PM,59.0,33.1,38,30.00,10.0,South,4.6,-,N/A,,Partly Cloudy,180,2014-04-28 23:54:00
8:54 PM,57.9,34.0,41,30.00,10.0,SSE,6.9,-,N/A,,Partly Cloudy,160,2014-04-29 00:54:00
9:54 PM,57.0,36.0,45,30.01,10.0,SE,5.8,-,0.00,Rain,Light Rain,130,2014-04-29 01:54:00
10:54 PM,57.0,36.0,45,30.01,10.0,ESE,5.8,-,0.00,,Overcast,120,2014-04-29 02:54:00
11:54 PM,54.0,41.0,62,30.01,10.0,South,9.2,-,N/A,,Overcast,170,2014-04-29 03:54:00